Weather in Dubna

Russia / Moscow Oblast     56°44′38″N   37°10′23″E
temp.,
°C
wind,
m/s
gust,
m/s
humid.,
%
clouds,
%
prec.,
mm/h
press.,
hPa
HPBL,
m
17 may, mon
mon1700:00+12sw22955 0.0 101417
03:00+12sse119394 0.0 101410
06:00+13ese1389100 0.0 101586
09:00+19ese2462100 0.0 1015529
12:00+23ese354615 0.0 10141474
15:00+25ese564648 0.0 10131542
18:00+24e59615 0.0 10111136
21:00+18e3109292 1.1 1011223
18 may, tue
tue1800:00+16ese3139413 0.0 1011307
03:00+14ese3119589 0.0 1010236
06:00+16se414855 0.0 1010373
09:00+22se512535 0.0 1010685
12:00+26se6113752 0.0 10091057
15:00+28se6113644 0.0 10092696
18:00+26se5104328 0.0 10081083
21:00+20ese5156058 0.0 1008532
19 may, wed
wed1900:00+19se4156780 0.0 1008616
03:00+17ese311805 0.0 1008310
06:00+17se412765 0.0 1008465
09:00+22sse47602 0.0 1008613
12:00+26sse454657 0.0 10091527
15:00+27se5114113 0.0 10081927
18:00+25s51452100 0.0 10081917
21:00+18sse25795 0.0 100895
20 may, thu
thu2000:00+16ene4109697 2.6 1009257
03:00+16se41395100 3.6 1009420
06:00+16e4119558 2.4 1008391
09:00+20ese5127846 2.4 1006731
12:00+24se7115576 0.1 10051923
15:00+20sse6117919 1.8 10051239
18:00+17s7128824 2.6 10051044
21:00+13s41390100 2.6 1008648
21 may, fri
fri2100:00+14s5129118 0.0 1009609
03:00+13ssw41094100 0.0 1009684
06:00+12sw5983100 0.1 1011862
09:00+12sw5974100 0.2 10141188
12:00+15sw586288 0.0 10151493
15:00+16w3560100 0.1 10161260
18:00+17sw1361100 0.0 10161253
21:00+12ssw2696100 1.2 1017211